Location: *
(51.8167°N, 12.5000°E)
Time: 20:11:39
(UTC+00:00)

Cosmos 405 Rocket - Pass Details

Date: 16 September 2019
Orbit: 491 x 554 km, 81.3° (Epoch: 20 October)

Event Time Altitude Azimuth Distance (km) Brightness Sun altitude
Exits shadow 18:18:38 13° 96° (E) 1,538 4.4 -9.2°
Maximum altitude 18:19:13 13° 86° (E) 1,517 4.5 -9.3°
Drops below altitude 10° 18:20:57 10° 58° (ENE) 1,697 4.9 -9.6°
Sets 18:24:02 0° 30° (NNE) 2,594 6.1 -10.0°
